User: anonymous   Login
Location: ROBOsky.com Wild Flower Ridge Observatory
(43.9736°N, 79.9739°W)
Time: 13:16:40
(UTC-05:00)
Language:

Cosmos 1190 Rocket - Orbit

View from above orbital plane
View from above orbital plane
View from above satellite
View from above satellite

Ground track
Ground track

The orbit data is extracted from the following two-line orbital elements,

1 11870U 80056B   14330.50865949  .00000472  00000-0  16911-3 0  8693
2 11870 074.0525 122.0815 0017450 305.6381 115.1345 14.36580503800726
Epoch (UTC): 26 November 2014 12:12:28
Eccentricity: 0.0017450
inclination: 74.0525°
perigee height: 757 km
apogee height: 782 km
right ascension of ascending node: 122.0815°
argument of perigee: 305.6381°
revolutions per day: 14.36580503
mean anomaly at epoch: 115.1345°
orbit number at epoch: 80072

The dashed part of the orbit path shows where the satellite is in the earth's shadow,  

DLR